Showing default

MINXSS-2, 43758

Orbit data source: Space-Track

MINXSS-2, 43758 is a payload satellite owned by CU-LASP (US) in SSO that was launched on Mon, 03 Dec 2018 UTC via an FALCON 9 launch vehicle from the Air Force Western Test Range (AFWTR). Payload-class satellites include a variety of spacecraft equipped with specific instruments for various scientific and technological missions. These include communications satellites like Starlink; space stations such as the ISS; scientific satellites like the Hubble; Earth observation satellites from companies like Planet Labs, Umbra, and HawkEye 360; GPS; miniature CubeSats for education and research; and military/defense satellites.

Loading next visibility...
Identifier
43758, 2018-099A
Orbit
SSO
Country
Flag of USUS
Related business
Manufacturer
CU-LASP
Mission
Operational Amateur Astronomy
Bus & Motor
CUBESAT 3U, Unknown motor
Mass
3.52 kg wet, 3.52 kg dry
Launch date (UTC)
2018-12-03 (7 years ago)
Launch vehicle
FALCON 9
Launch site
Air Force Western Test Range (AFWTR)
Object type
Payload
Rocket body
Debris
Shape & HBR
Box + 2 Pan + 1 Ant, 0.4 m
Radar Cross Section
0.075 m², Medium (>0.1 m² and < 1m²)

Expand to show TLE details & history
Last TLE update: 16 hours ago

TLE from 16 hours ago
0 MINXSS-2
1 43758U 18099A   25260.77899747  .00017475  00000-0  62334-3 0  9992
2 43758  97.4924 327.2937 0012010 157.8125 202.3636 15.28884399372269
Epoch: 2025-09-17T18:41Z
TLE epoch observation values (Epoch: 2025-09-17T18:41:45.381Z)
Latitude
-0.0001°
Longitude
49.90457°
Altitude
489.865 km
Speed
7.616 km/s
True Right ascension
21h 49m 10s
True Declination
0° 00' 00"
Sunlit
Object was in full shadow at epoch
Visualization orbit readout
Latitude
Unknown
Longitude
Unknown
Altitude
Unknown
Speed
Unknown
Apparent Right ascension
Unknown
Apparent Declination
Unknown
Sunlit
N/A
Visualization observer readout
Local Sidereal Time
03:21:50
Azimuth
Unknown
Elevation
Unknown
Doppler factor
Unknown
Orbital elements
Apogee altitude
484.336 km
Perigee altitude
467.872 km
Semi-major axis
6,854.241 km
Eccentricity
0.0012
Inclination
97.4924°
RAAN
327.2937°
Arg. of periapsis
157.8125°
True anomaly
202.31131°
Mean anomaly
202.3636°
Eccentric anomaly
202.33745°
Mean motion
3.82476 °/min
Orbital period
94.12 mins
BSTAR
0.00062334
Loading maneuver chart data...
Computing Atmospheric mass density...
Loading historical data...
Loading historical data...
Loading historical data...
Loading historical data...
Loading historical data...
Loading historical data...
Loading historical data...

Documentation

Showing up to 5 results
|